�������l�o���
Date,Time,MP-1(��Sv/h),MP-2(��Sv/h),MP-3(��Sv/h),MP-4(��Sv/h),MP-5(��Sv/h),MP-6(��Sv/h),MP-7(��Sv/h),MP-8(��Sv/h),����,����(m/s),���J
2023/05/25,00:00,0.539,0.790,0.483,0.958,0.694,0.318,0.565,0.535,��,5.9,��
2023/05/25,00:10,0.541,0.790,0.484,0.957,0.693,0.319,0.565,0.535,��,5.7,��
2023/05/25,00:20,0.541,0.790,0.483,0.958,0.693,0.317,0.565,0.534,��,5.9,��
2023/05/25,00:30,0.539,0.790,0.482,0.958,0.692,0.318,0.565,0.534,��,6.3,��
2023/05/25,00:40,0.540,0.791,0.484,0.958,0.693,0.318,0.566,0.534,��,6.7,��
2023/05/25,00:50,0.539,0.790,0.484,0.958,0.691,0.320,0.566,0.533,��,6.6,��
2023/05/25,01:00,0.539,0.789,0.484,0.959,0.692,0.318,0.566,0.534,��,6.5,��
2023/05/25,01:10,0.540,0.789,0.483,0.959,0.694,0.318,0.565,0.534,��,7.1,��
2023/05/25,01:20,0.538,0.788,0.484,0.958,0.693,0.319,0.565,0.534,��,6.4,��
2023/05/25,01:30,0.540,0.789,0.484,0.959,0.690,0.318,0.567,0.534,���k��,6.9,��
2023/05/25,01:40,0.538,0.791,0.483,0.958,0.692,0.318,0.567,0.535,���k��,6.4,��
2023/05/25,01:50,0.539,0.789,0.484,0.958,0.692,0.319,0.566,0.533,���k��,5.5,��
2023/05/25,02:00,0.539,0.788,0.483,0.957,0.691,0.318,0.566,0.534,���k��,5.5,��
2023/05/25,02:10,0.539,0.790,0.483,0.957,0.691,0.318,0.565,0.534,���k��,4.5,��
2023/05/25,02:20,0.539,0.788,0.482,0.959,0.692,0.318,0.568,0.535,���k��,4.7,��
2023/05/25,02:30,0.540,0.789,0.484,0.959,0.691,0.318,0.565,0.536,��,4.2,��
2023/05/25,02:40,0.541,0.790,0.482,0.958,0.690,0.317,0.565,0.534,��,3.8,��
2023/05/25,02:50,0.539,0.791,0.483,0.957,0.690,0.317,0.565,0.533,���k��,3.5,��
2023/05/25,03:00,0.538,0.790,0.482,0.959,0.693,0.319,0.565,0.534,���k��,3.5,��
2023/05/25,03:10,0.540,0.790,0.482,0.958,0.692,0.318,0.566,0.533,���k��,3.0,��
2023/05/25,03:20,0.539,0.790,0.482,0.958,0.691,0.318,0.564,0.533,��,3.1,��
2023/05/25,03:30,0.540,0.788,0.485,0.959,0.692,0.317,0.566,0.534,��,3.1,��
2023/05/25,03:40,0.541,0.789,0.483,0.957,0.692,0.318,0.564,0.535,���쐼,2.8,��
2023/05/25,03:50,0.538,0.790,0.483,0.960,0.694,0.318,0.566,0.533,��,2.2,��
2023/05/25,04:00,0.540,0.789,0.484,0.956,0.694,0.317,0.565,0.533,�쐼,3.2,��
2023/05/25,04:10,0.539,0.790,0.483,0.958,0.692,0.318,0.566,0.534,�쐼,4.2,��
2023/05/25,04:20,0.539,0.788,0.483,0.960,0.692,0.317,0.565,0.534,�쐼,4.1,��
2023/05/25,04:30,0.538,0.791,0.483,0.959,0.693,0.317,0.566,0.533,�쐼,3.9,��
2023/05/25,04:40,0.539,0.789,0.482,0.960,0.692,0.317,0.565,0.535,���쐼,3.6,��
2023/05/25,04:50,0.541,0.789,0.482,0.960,0.690,0.318,0.566,0.535,���쐼,3.1,��
2023/05/25,05:00,0.541,0.791,0.482,0.961,0.691,0.317,0.566,0.535,���쐼,3.0,��
2023/05/25,05:10,0.540,0.790,0.483,0.959,0.692,0.317,0.565,0.535,���쐼,2.6,��
2023/05/25,05:20,0.540,0.789,0.484,0.960,0.692,0.318,0.565,0.534,���쐼,1.9,��
2023/05/25,05:30,0.539,0.789,0.481,0.959,0.693,0.318,0.564,0.533,���쐼,2.3,��
2023/05/25,05:40,0.540,0.789,0.483,0.959,0.692,0.318,0.566,0.535,�쐼,3.0,��
2023/05/25,05:50,0.541,0.791,0.483,0.959,0.694,0.318,0.565,0.534,�쐼,3.4,��
2023/05/25,06:00,0.542,0.791,0.483,0.961,0.693,0.319,0.565,0.534,�쐼,3.2,��
2023/05/25,06:10,0.541,0.791,0.484,0.960,0.693,0.319,0.566,0.532,�쐼,3.2,��
2023/05/25,06:20,0.540,0.790,0.483,0.959,0.693,0.317,0.566,0.534,�쐼,2.5,��
2023/05/25,06:30,0.541,0.790,0.483,0.961,0.693,0.319,0.565,0.535,�쐼,2.3,��
2023/05/25,06:40,0.540,0.790,0.483,0.964,0.693,0.318,0.565,0.535,��쐼,2.0,��
2023/05/25,06:50,0.541,0.789,0.484,0.961,0.693,0.319,0.567,0.535,��,1.2,��
2023/05/25,07:00,0.539,0.789,0.483,0.959,0.693,0.317,0.567,0.535,-,CALM,��
2023/05/25,07:10,0.542,0.790,0.483,0.958,0.693,0.317,0.566,0.535,-,CALM,��
2023/05/25,07:20,0.540,0.788,0.483,0.960,0.693,0.318,0.566,0.536,�쓌,0.9,��
2023/05/25,07:30,0.542,0.788,0.483,0.959,0.693,0.317,0.567,0.534,�쓌,0.9,��
2023/05/25,07:40,0.541,0.790,0.483,0.960,0.691,0.317,0.565,0.533,��쓌,1.4,��
2023/05/25,07:50,0.540,0.790,0.485,0.959,0.694,0.318,0.566,0.533,��쓌,1.7,��
2023/05/25,08:00,0.540,0.791,0.486,0.962,0.693,0.315,0.563,0.533,�쓌,1.7,��
2023/05/25,08:10,0.539,0.792,0.484,0.960,0.692,0.317,0.562,0.532,�쓌,2.0,��
2023/05/25,08:20,0.540,0.791,0.484,0.961,0.695,0.318,0.562,0.532,�쓌,1.7,��
2023/05/25,08:30,0.541,0.790,0.486,0.960,0.694,0.317,0.563,0.530,�쓌,1.5,��
2023/05/25,08:40,0.540,0.790,0.483,0.960,0.696,0.319,0.563,0.531,�쓌,2.2,��
2023/05/25,08:50,0.539,0.789,0.484,0.962,0.694,0.317,0.563,0.531,���쓌,2.2,��
2023/05/25,09:00,0.541,0.790,0.483,0.961,0.692,0.318,0.562,0.531,�쓌,2.0,��
2023/05/25,09:10,0.541,0.792,0.482,0.960,0.693,0.318,0.563,0.530,���쓌,2.3,��
2023/05/25,09:20,0.540,0.793,0.482,0.961,0.694,0.318,0.561,0.531,���쓌,2.5,��
2023/05/25,09:30,0.540,0.792,0.482,0.961,0.693,0.317,0.561,0.531,���쓌,3.2,��
2023/05/25,09:40,0.542,0.791,0.483,0.960,0.689,0.318,0.562,0.532,��,2.6,��
2023/05/25,09:50,0.542,0.794,0.483,0.961,0.689,0.317,0.564,0.532,���쓌,2.6,��
2023/05/25,10:00,0.541,0.792,0.483,0.961,0.693,0.318,0.565,0.533,���쓌,2.0,��
2023/05/25,10:10,0.540,0.792,0.483,0.961,0.694,0.317,0.564,0.533,�쓌,3.0,��
2023/05/25,10:20,0.541,0.793,0.483,0.962,0.692,0.319,0.563,0.533,��,1.7,��
2023/05/25,10:30,0.540,0.792,0.484,0.962,0.694,0.317,0.564,0.533,��쓌,4.1,��
2023/05/25,10:40,0.539,0.792,0.482,0.960,0.693,0.319,0.564,0.533,��쓌,5.0,��
2023/05/25,10:50,0.538,0.792,0.482,0.962,0.695,0.319,0.565,0.532,��쓌,5.0,��
2023/05/25,11:00,0.539,0.795,0.483,0.962,0.694,0.318,0.563,0.533,��쓌,5.3,��
2023/05/25,11:10,0.539,0.794,0.483,0.960,0.693,0.318,0.564,0.533,��쓌,6.6,��
2023/05/25,11:20,0.539,0.792,0.482,0.962,0.696,0.318,0.562,0.534,��쓌,6.4,��
2023/05/25,11:30,0.539,0.792,0.484,0.961,0.695,0.317,0.564,0.534,��쓌,6.3,��
2023/05/25,11:40,0.540,0.793,0.483,0.961,0.696,0.319,0.562,0.532,��쓌,5.8,��
2023/05/25,11:50,0.541,0.794,0.484,0.961,0.695,0.319,0.564,0.533,��쓌,7.2,��
2023/05/25,12:00,0.541,0.795,0.484,0.961,0.697,0.320,0.565,0.533,��쓌,6.1,��
2023/05/25,12:10,0.540,0.796,0.484,0.961,0.696,0.319,0.565,0.533,��쓌,6.8,��
2023/05/25,12:20,0.541,0.796,0.484,0.964,0.696,0.320,0.565,0.532,��쓌,5.6,��
2023/05/25,12:30,0.543,0.796,0.484,0.960,0.698,0.320,0.565,0.534,��쓌,5.6,��
2023/05/25,12:40,0.542,0.796,0.485,0.961,0.698,0.318,0.566,0.535,��쓌,6.9,��
2023/05/25,12:50,0.542,0.796,0.486,0.963,0.697,0.320,0.566,0.533,��쓌,7.9,��
2023/05/25,13:00,0.542,0.795,0.485,0.964,0.698,0.319,0.564,0.534,��쓌,7.7,��
2023/05/25,13:10,0.543,0.796,0.485,0.962,0.697,0.319,0.565,0.533,��쓌,7.8,��
2023/05/25,13:20,0.541,0.799,0.485,0.960,0.698,0.319,0.565,0.533,��쓌,8.7,��
2023/05/25,13:30,0.541,0.798,0.486,0.960,0.698,0.319,0.565,0.534,��쓌,9.4,��
2023/05/25,13:40,0.543,0.796,0.485,0.961,0.698,0.320,0.565,0.534,��쓌,8.7,��
2023/05/25,13:50,0.541,0.796,0.486,0.961,0.699,0.319,0.565,0.533,��쓌,8.5,��
2023/05/25,14:00,0.541,0.796,0.487,0.962,0.700,0.320,0.565,0.534,��쓌,9.4,��
2023/05/25,14:10,0.543,0.797,0.486,0.963,0.701,0.320,0.566,0.534,��,8.5,��
2023/05/25,14:20,0.543,0.797,0.486,0.963,0.700,0.321,0.564,0.533,��쓌,10.5,��
2023/05/25,14:30,0.544,0.797,0.487,0.963,0.701,0.320,0.564,0.534,��쓌,9.6,��
2023/05/25,14:40,0.544,0.798,0.486,0.966,0.700,0.318,0.564,0.533,��쓌,8.5,��
2023/05/25,14:50,0.542,0.799,0.488,0.965,0.701,0.319,0.566,0.534,��쓌,8.8,��
2023/05/25,15:00,0.541,0.800,0.487,0.964,0.700,0.320,0.565,0.535,��쓌,8.8,��
2023/05/25,15:10,0.541,0.800,0.487,0.965,0.699,0.320,0.564,0.535,��쓌,7.3,��
2023/05/25,15:20,0.542,0.798,0.484,0.962,0.702,0.319,0.564,0.535,��쓌,9.4,��
2023/05/25,15:30,0.542,0.801,0.487,0.964,0.699,0.319,0.567,0.535,��쓌,9.4,��
2023/05/25,15:40,0.543,0.801,0.489,0.963,0.703,0.320,0.566,0.533,��쓌,11.4,��
2023/05/25,15:50,0.542,0.800,0.488,0.966,0.702,0.319,0.563,0.535,��쓌,10.2,��
2023/05/25,16:00,0.543,0.799,0.486,0.966,0.702,0.321,0.565,0.534,��쓌,11.3,��
2023/05/25,16:10,0.542,0.801,0.487,0.964,0.701,0.319,0.566,0.534,��,9.9,��
2023/05/25,16:20,0.542,0.799,0.487,0.964,0.702,0.321,0.563,0.534,��,9.7,��
2023/05/25,16:30,0.545,0.800,0.485,0.964,0.701,0.320,0.565,0.535,��,8.6,��
2023/05/25,16:40,0.543,0.798,0.488,0.963,0.701,0.320,0.566,0.534,��쓌,9.8,��
2023/05/25,16:50,0.543,0.799,0.487,0.965,0.701,0.320,0.565,0.533,��쓌,9.5,��
2023/05/25,17:00,0.542,0.800,0.487,0.964,0.701,0.319,0.564,0.534,��쓌,10.9,��
2023/05/25,17:10,0.544,0.799,0.487,0.963,0.702,0.319,0.564,0.534,��,9.8,��
2023/05/25,17:20,0.542,0.798,0.487,0.965,0.702,0.319,0.565,0.536,��,11.3,��
2023/05/25,17:30,0.542,0.803,0.485,0.966,0.701,0.319,0.564,0.534,��,10.8,��
2023/05/25,17:40,0.543,0.802,0.486,0.968,0.700,0.320,0.566,0.535,��,9.6,��
2023/05/25,17:50,0.542,0.800,0.486,0.969,0.701,0.320,0.565,0.534,��쓌,9.0,��
2023/05/25,18:00,0.541,0.799,0.484,0.966,0.702,0.320,0.565,0.536,��,8.7,��
2023/05/25,18:10,0.543,0.801,0.486,0.968,0.701,0.319,0.565,0.537,��쓌,9.4,��
2023/05/25,18:20,0.542,0.802,0.486,0.968,0.702,0.320,0.564,0.535,��,8.1,��
2023/05/25,18:30,0.543,0.801,0.486,0.969,0.701,0.320,0.566,0.537,��,8.2,��
2023/05/25,18:40,0.542,0.801,0.487,0.969,0.701,0.320,0.565,0.537,��,8.5,��
2023/05/25,18:50,0.542,0.801,0.487,0.971,0.701,0.319,0.565,0.538,��,8.5,��
2023/05/25,19:00,0.541,0.801,0.486,0.970,0.702,0.319,0.565,0.536,��,7.4,��
2023/05/25,19:10,0.544,0.802,0.488,0.970,0.704,0.321,0.567,0.537,��,6.5,��
2023/05/25,19:20,0.543,0.802,0.487,0.968,0.705,0.320,0.566,0.536,��,7.9,��
2023/05/25,19:30,0.544,0.802,0.489,0.970,0.703,0.320,0.565,0.536,��,8.6,��
2023/05/25,19:40,0.543,0.804,0.488,0.970,0.701,0.321,0.567,0.536,��,8.7,��
2023/05/25,19:50,0.545,0.804,0.489,0.969,0.704,0.320,0.566,0.536,��,8.6,��
2023/05/25,20:00,0.545,0.805,0.488,0.969,0.705,0.320,0.566,0.539,��,6.9,��
2023/05/25,20:10,0.545,0.805,0.490,0.971,0.707,0.321,0.566,0.538,��,6.9,��
2023/05/25,20:20,0.545,0.804,0.488,0.969,0.706,0.321,0.568,0.537,��,8.6,��
2023/05/25,20:30,0.544,0.804,0.489,0.968,0.707,0.322,0.568,0.536,��,9.8,��
2023/05/25,20:40,0.545,0.803,0.489,0.969,0.705,0.321,0.567,0.537,��쐼,9.3,��
2023/05/25,20:50,0.544,0.804,0.489,0.969,0.705,0.321,0.568,0.537,��쐼,9.4,��
2023/05/25,21:00,0.544,0.804,0.488,0.968,0.703,0.321,0.568,0.537,��쐼,9.4,��
2023/05/25,21:10,0.544,0.803,0.487,0.967,0.704,0.321,0.567,0.537,��쐼,9.4,��
2023/05/25,21:20,0.544,0.804,0.489,0.970,0.704,0.321,0.567,0.537,��쐼,9.5,��
2023/05/25,21:30,0.544,0.804,0.487,0.968,0.705,0.321,0.568,0.536,��쐼,9.4,��
2023/05/25,21:40,0.545,0.804,0.489,0.968,0.703,0.320,0.567,0.537,��쐼,9.6,��
2023/05/25,21:50,0.545,0.805,0.488,0.969,0.704,0.322,0.568,0.537,��쐼,7.9,��
2023/05/25,22:00,0.546,0.803,0.489,0.970,0.706,0.319,0.567,0.539,��쐼,6.8,��
2023/05/25,22:10,0.544,0.804,0.488,0.969,0.704,0.321,0.566,0.537,��쐼,7.0,��
2023/05/25,22:20,0.546,0.806,0.488,0.970,0.705,0.321,0.566,0.537,��쐼,6.4,��
2023/05/25,22:30,0.543,0.805,0.488,0.969,0.705,0.321,0.567,0.537,�쐼,6.2,��
2023/05/25,22:40,0.544,0.803,0.488,0.969,0.706,0.320,0.567,0.536,��쐼,5.4,��
2023/05/25,22:50,0.545,0.804,0.488,0.970,0.706,0.322,0.565,0.536,�쐼,3.9,��
2023/05/25,23:00,0.545,0.805,0.487,0.969,0.705,0.322,0.565,0.537,�쐼,3.8,��
2023/05/25,23:10,0.545,0.805,0.489,0.969,0.704,0.320,0.567,0.537,�쐼,3.8,��
2023/05/25,23:20,0.544,0.803,0.489,0.967,0.705,0.321,0.566,0.536,�쐼,4.1,��
2023/05/25,23:30,0.544,0.803,0.486,0.968,0.704,0.320,0.567,0.536,��쐼,4.6,��
2023/05/25,23:40,0.545,0.805,0.490,0.971,0.704,0.322,0.567,0.537,��쐼,4.6,��
2023/05/25,23:50,0.544,0.804,0.487,0.971,0.705,0.320,0.567,0.536,��쐼,4.4,��
